Weather History for Presque Isle, ME

Change the Weather History Date:

Thursday, September 5, 2013

  Actual Average Record
Temperature  
Mean Temperature 50 °F -  
Max Temperature 59 °F 70 °F 87 °F (1983)
Min Temperature 39 °F 47 °F 30 °F (1963)
Degree Days  
Heating Degree Days 15    
Moisture  
Dew Point 37 °F    
Average Humidity 65    
Maximum Humidity 93    
Minimum Humidity 31    
Precipitation  
Precipitation 0.00 in - - ()
Sea Level Pressure  
Sea Level Pressure 29.96 in    
Wind  
Wind Speed 4 mph (WNW)    
Max Wind Speed 14 mph    
Max Gust Speed 18 mph    
Visibility 10 miles    
Events      
Averages and records for this station are not official NWS values.
T = Trace of Precipitation, MM = Missing Value Source: NWS Daily Summary

Daily Weather History Graph

Daily Weather History Graph

Search for Another Location

Airport:

Trip Planner

Search our weather history database for the weather conditions in past years. The results will help you decide how hot, cold, wet, or windy it might be!

Date:

Astronomy

Sep. 05, 2013 Rise Set
Actual Time 5:57 AM EDT 7:03 PM EDT
Civil Twilight 5:26 AM EDT 7:34 PM EDT
Nautical Twilight 4:49 AM EDT 8:11 PM EDT
Astronomical Twilight 4:09 AM EDT 8:50 PM EDT
Moon 6:09 AM EDT (9/5) 6:47 PM EDT (9/5)
Length of Visible Light 14h 07m
Length of Day
13h 05m
New Moon, 0% of the Moon is Illuminated
Sep 5
New Moon
Sep 12
First Quarter
Sep 19
Full
Sep 26
Last Quarter
Oct 4
New

Hourly Weather History & Observations

Time (EDT) Temp. Windchill Dew Point Humidity Pressure Visibility Wind Dir Wind Speed Gust Speed Precip Events Conditions
12:15 AM 44.6 °F 43.1 °F 41.0 °F 87% 29.88 in 9.0 mi WSW 3.5 mph - N/A   Clear
12:35 AM 44.6 °F - 41.0 °F 87% 29.88 in 10.0 mi Calm Calm - N/A   Clear
12:55 AM 44.6 °F - 41.0 °F 87% 29.88 in 10.0 mi Calm Calm - N/A   Mostly Cloudy
1:15 AM 44.6 °F - 41.0 °F 87% 29.88 in 10.0 mi Calm Calm - N/A   Mostly Cloudy
1:35 AM 44.6 °F - 39.2 °F 81% 29.88 in 10.0 mi Calm Calm - N/A   Mostly Cloudy
2:15 AM 44.6 °F - 42.8 °F 93% 29.88 in 10.0 mi Calm Calm - N/A   Overcast
2:35 AM 44.6 °F 43.1 °F 41.0 °F 87% 29.89 in 10.0 mi SSW 3.5 mph - N/A   Mostly Cloudy
3:15 AM 44.6 °F - 41.0 °F 87% 29.88 in 10.0 mi Calm Calm - N/A   Overcast
3:35 AM 46.4 °F - 42.8 °F 87% 29.89 in 10.0 mi Calm Calm - N/A   Overcast
3:55 AM 46.4 °F - 42.8 °F 87% 29.89 in 10.0 mi Calm Calm - N/A   Overcast
4:15 AM 46.4 °F - 42.8 °F 87% 29.89 in 10.0 mi Calm Calm - N/A   Overcast
4:35 AM 46.4 °F - 42.8 °F 87% 29.88 in 10.0 mi Calm Calm - N/A   Partly Cloudy
4:55 AM 46.4 °F - 42.8 °F 87% 29.89 in 10.0 mi Calm Calm - N/A   Clear
5:15 AM 46.4 °F - 42.8 °F 87% 29.90 in 10.0 mi Calm Calm - N/A   Clear
5:55 AM 46.4 °F - 42.8 °F 87% 29.91 in 10.0 mi Calm Calm - N/A   Clear
6:15 AM 46.4 °F 45.2 °F 42.8 °F 87% 29.92 in 8.0 mi West 3.5 mph - N/A   Clear
6:35 AM 46.4 °F - 42.8 °F 87% 29.93 in 10.0 mi Calm Calm - N/A   Scattered Clouds
6:55 AM 46.4 °F - 42.8 °F 87% 29.93 in 10.0 mi Calm Calm - N/A   Scattered Clouds
7:15 AM 46.4 °F 45.2 °F 42.8 °F 87% 29.93 in 10.0 mi WNW 3.5 mph - N/A   Scattered Clouds
7:35 AM 46.4 °F 45.2 °F 42.8 °F 87% 29.94 in 10.0 mi WSW 3.5 mph - N/A   Scattered Clouds
7:55 AM 48.2 °F - 42.8 °F 82% 29.95 in 10.0 mi Calm Calm - N/A   Mostly Cloudy
8:15 AM 48.2 °F - 39.2 °F 71% 29.94 in 10.0 mi NW 3.5 mph - N/A   Scattered Clouds
8:35 AM 48.2 °F - 39.2 °F 71% 29.95 in 10.0 mi NW 5.8 mph - N/A   Scattered Clouds
8:55 AM 48.2 °F - 39.2 °F 71% 29.96 in 10.0 mi WNW 3.5 mph - N/A   Partly Cloudy
9:15 AM 48.2 °F - 39.2 °F 71% 29.96 in 10.0 mi NW 4.6 mph - N/A   Partly Cloudy
9:35 AM 50.0 °F - 39.2 °F 66% 29.96 in 10.0 mi WNW 6.9 mph - N/A   Clear
9:55 AM 50.0 °F - 37.4 °F 62% 29.97 in 10.0 mi WNW 8.1 mph - N/A   Clear
10:15 AM 51.8 °F - 37.4 °F 58% 29.96 in 10.0 mi NNW 9.2 mph - N/A   Clear
10:35 AM 51.8 °F - 35.6 °F 54% 29.96 in 10.0 mi NNW 9.2 mph - N/A   Partly Cloudy
10:55 AM 53.6 °F - 37.4 °F 54% 29.96 in 10.0 mi NNW 5.8 mph - N/A   Clear
11:15 AM 53.6 °F - 35.6 °F 51% 29.96 in 10.0 mi West 4.6 mph - N/A   Mostly Cloudy
11:35 AM 55.4 °F - 35.6 °F 47% 29.95 in 10.0 mi WNW 11.5 mph - N/A   Overcast
11:55 AM 53.6 °F - 33.8 °F 47% 29.95 in 10.0 mi WNW 10.4 mph - N/A   Mostly Cloudy
12:15 PM 55.4 °F - 33.8 °F 44% 29.94 in 10.0 mi West 11.5 mph 16.1 mph N/A   Scattered Clouds
12:35 PM 57.2 °F - 33.8 °F 41% 29.94 in 10.0 mi NNW 9.2 mph - N/A   Mostly Cloudy
12:55 PM 55.4 °F - 33.8 °F 44% 29.95 in 10.0 mi WNW 9.2 mph 16.1 mph N/A   Scattered Clouds
1:15 PM 57.2 °F - 33.8 °F 41% 29.94 in 10.0 mi NW 9.2 mph - N/A   Mostly Cloudy
1:35 PM 57.2 °F - 33.8 °F 41% 29.94 in 10.0 mi West 6.9 mph - N/A   Scattered Clouds
1:55 PM 57.2 °F - 33.8 °F 41% 29.94 in 10.0 mi NW 8.1 mph - N/A   Partly Cloudy
2:15 PM 55.4 °F - 32.0 °F 41% 29.94 in 10.0 mi NW 9.2 mph - N/A   Partly Cloudy
2:55 PM 59.0 °F - 32.0 °F 36% 29.94 in 10.0 mi NW 6.9 mph 18.4 mph N/A   Scattered Clouds
3:15 PM 57.2 °F - 30.2 °F 36% 29.94 in 10.0 mi NW 8.1 mph - N/A   Scattered Clouds
3:35 PM 57.2 °F - 32.0 °F 38% 29.94 in 10.0 mi WNW 8.1 mph - N/A   Mostly Cloudy
3:55 PM 59.0 °F - 28.4 °F 31% 29.94 in 10.0 mi NW 12.7 mph 16.1 mph N/A   Scattered Clouds
4:15 PM 57.2 °F - 30.2 °F 36% 29.95 in 10.0 mi NW 10.4 mph - N/A   Mostly Cloudy
4:35 PM 57.2 °F - 30.2 °F 36% 29.95 in 10.0 mi NW 10.4 mph 16.1 mph N/A   Mostly Cloudy
4:55 PM 57.2 °F - 30.2 °F 36% 29.96 in 10.0 mi WNW 10.4 mph - N/A   Mostly Cloudy
5:15 PM 57.2 °F - 30.2 °F 36% 29.97 in 10.0 mi WNW 9.2 mph - N/A   Mostly Cloudy
5:35 PM 55.4 °F - 30.2 °F 38% 29.97 in 10.0 mi WNW 11.5 mph - N/A   Mostly Cloudy
5:55 PM 53.6 °F - 32.0 °F 44% 29.98 in 10.0 mi WNW 6.9 mph - N/A   Mostly Cloudy
6:15 PM 53.6 °F - 33.8 °F 47% 29.99 in 10.0 mi WNW 6.9 mph - N/A   Overcast
6:35 PM 53.6 °F - 33.8 °F 47% 29.99 in 10.0 mi WNW 5.8 mph - N/A   Overcast
6:55 PM 53.6 °F - 33.8 °F 47% 30.00 in 10.0 mi WNW 4.6 mph - N/A   Mostly Cloudy
7:15 PM 51.8 °F - 37.4 °F 58% 30.01 in 10.0 mi West 4.6 mph - N/A   Overcast
7:35 PM 51.8 °F - 35.6 °F 54% 30.02 in 10.0 mi NNW 13.8 mph - N/A   Overcast
7:55 PM 51.8 °F - 35.6 °F 54% 30.04 in 10.0 mi NNW 10.4 mph - N/A   Overcast
8:15 PM 50.0 °F - 35.6 °F 58% 30.05 in 10.0 mi NNW 12.7 mph 16.1 mph N/A   Overcast
8:35 PM 50.0 °F - 35.6 °F 58% 30.05 in 10.0 mi NNW 8.1 mph - N/A   Overcast
8:55 PM 50.0 °F - 35.6 °F 58% 30.06 in 10.0 mi NNW 4.6 mph - N/A   Overcast
9:15 PM 48.2 °F - 37.4 °F 66% 30.06 in 10.0 mi NW 3.5 mph - N/A   Overcast
9:35 PM 48.2 °F - 37.4 °F 66% 30.06 in 10.0 mi NW 3.5 mph - N/A   Overcast
9:55 PM 48.2 °F - 37.4 °F 66% 30.06 in 10.0 mi Calm Calm - N/A   Partly Cloudy
10:15 PM 44.6 °F - 39.2 °F 81% 30.07 in 10.0 mi Calm Calm - N/A   Partly Cloudy
10:35 PM 42.8 °F 41.1 °F 37.4 °F 81% 30.07 in 10.0 mi West 3.5 mph - N/A   Clear
10:55 PM 42.8 °F - 37.4 °F 81% 30.07 in 10.0 mi Calm Calm - N/A   Clear
11:15 PM 42.8 °F - 37.4 °F 81% 30.07 in 10.0 mi Calm Calm - N/A   Clear
11:35 PM 41.0 °F - 37.4 °F 87% 30.08 in 10.0 mi Calm Calm - N/A   Clear
11:55 PM 39.2 °F 37.0 °F 37.4 °F 93% 30.08 in 4.0 mi South 3.5 mph - N/A   Clear